Regional Weather Roundup
Issued by NWS Charleston, SC

Home | Current Version | Previous Version | Text Only | Print | Product List | Glossary On
Versions: 1 2 3 4 5 6 7 8 9 10 11 12 13 14 15 16 17 18 19 20 21 22 23 24 25 26 27 28 29 30 31 32 33 34 35 36 37 38 39 40 41 42 43 44 45 46 47 48 49 50
000
ASUS42 KCHS 191810
RWRCHS
REGIONAL WEATHER ROUNDUP
NATIONAL WEATHER SERVICE CHARLESTON SC
200 PM EDT SAT APR 19 2014

NOTE: "FAIR" INDICATES FEW OR NO CLOUDS BELOW 12,000 FEET WITH NO
SIGNIFICANT WEATHER AND/OR OBSTRUCTIONS TO VISIBILITY.

NOT ALL STATIONS ARE QUALITY CONTROLLED BY THE NATIONAL
WEATHER SERVICE. USE DATA WITH CAUTION...ESPECIALLY
DEWPOINT OBSERVATIONS.

SCZ027-030-031-034>040-042>050-191900-
...SOUTH CAROLINA...

CITY           SKY/WX    TMP DP  RH WIND       PRES   REMARKS
N CHARLESTON   DRIZZLE   62  58  86 N12       29.98R
6HR MIN TEMP:  59; 6HR MAX TEMP:  63; 6HR PCP: TRACE;

WATERFRONT PRK   N/A     61 N/A N/A N14         N/A
FORT JOHNSON   NOT AVBL
MOUNT PLEASANT NOT AVBL
JOHNS ISLAND   CLOUDY    63  63 100 N8        29.97R FOG
PINOPOLIS        N/A     57  55  94 NE15      29.90F
MONCKS CORNER  CLOUDY    59  59 100 N5G17     29.99S
SUMMERVILLE    NOT AVBL
BEAUFORT MCAS  CLOUDY    62  59  90 E13       29.97R
6HR MIN TEMP:  58; 6HR MAX TEMP:  63; 6HR PCP: TRACE;

BEAUFORT ARPT  CLOUDY    61  61 100 N9        29.96S FOG
HILTON HEAD IS CLOUDY    63  61  94 N10       29.96F FOG
GEORGETOWN     NOT AVBL
WALTERBORO     CLOUDY    57 N/A N/A N7G17     30.00R
ORANGEBURG     CLOUDY    58  53  84 NE12G21   30.02S
6HR MIN TEMP:  54; 6HR MAX TEMP:  58; 6HR PCP:  0.01;

BARNWELL       CLOUDY    57  55  94 NE13G20   30.02S
AIKEN          CLOUDY    55  55 100 NE16G24   30.06F
MANNING        NOT AVBL
KINGSTREE      NOT AVBL
COLUMBIA       LGT RAIN  57  54  89 N10G21    30.05F FOG
6HR MIN TEMP:  53; 6HR MAX TEMP:  58; 6HR PCP:  0.01;

SUMTER         LGT RAIN  55  54  94 NE16      30.03S FOG
6HR MIN TEMP:  53; 6HR MAX TEMP:  56; 6HR PCP:  0.07;

FLORENCE       CLOUDY    56  52  86 NE13G22   30.05S
6HR MIN TEMP:  53; 6HR MAX TEMP:  56; 6HR PCP:  0.07;

MYRTLE BEACH   CLOUDY    57  54  88 NE119     29.99F
N MYRTLE BEACH CLOUDY    57  53  86 N17       29.99S
6HR MIN TEMP:  56; 6HR MAX TEMP:  58; 6HR PCP: TRACE;


$$

GAZ063-065-086>088-099>101-113>116-118-119-134-136>141-150-191900-
...GEORGIA...

CITY           SKY/WX    TMP DP  RH WIND       PRES   REMARKS
SAVANNAH ARPT  LGT RAIN  62  58  86 N12       29.96R
6HR MIN TEMP:  58; 6HR MAX TEMP:  62; 6HR PCP:  0.01;

HUNTER AAF     CLOUDY    62  60  93 VRB6      29.93S
6HR MIN TEMP:  58; 6HR MAX TEMP:  62; 6HR PCP:  0.06;

FORT STEWART   CLOUDY    60  60 100 N6        29.94S
6HR MIN TEMP:  57; 6HR MAX TEMP:  60; 6HR PCP:  0.04;

STATESBORO     NOT AVBL
SYLVANIA       CLOUDY    60  56  85 NE15G21   29.99S
CLAXTON        RAIN      59  59 100 NE5       29.97S
THOMSON        CLOUDY    55  55 100 N15       30.10R
AUGUSTA-BUSH   CLOUDY    58  52  80 NE14      30.04R
6HR MIN TEMP:  53; 6HR MAX TEMP:  58; 6HR PCP:  0.10;

AUGUSTA-DANIEL CLOUDY    59  53  80 NE16G24   30.05R
SWAINSBORO     HVY RAIN  55  55 100 NE7       30.00F
VIDALIA        CLOUDY    59  55  88 N10G20    29.98S
ALMA           CLOUDY    60  55  83 N8        29.94F
6HR MIN TEMP:  55; 6HR MAX TEMP:  60; 6HR PCP:  0.02;

WAYCROSS       NOT AVBL
JESUP          CLOUDY    59  59 100 NE7       29.95R
BRUNSWICK      CLOUDY    63  63 100 NE9       29.92S
SAINT SIMONS   LGT RAIN  63  62  97 NE9G21    29.91S FOG
6HR MIN TEMP:  62; 6HR MAX TEMP:  65; 6HR PCP: TRACE;


$$

SCZ027-028-034-036>038-045-046-048>050-GAZ119-141-191900-
...LAKE AND SUPPLEMENTAL COASTAL OBSERVATIONS...

STATION/POSITION TIME  TEMP    WIND        PRES    WAVE   SWELL
                       AIR SEA DIR/SP/G            HT/PER HT/PER/DIR
                 (UTC) (F)     (DEG/KT/KT) (MB)    (FT/S) (FT/S/D)
UPR LAKE MARION  NOT AVBL
WINYAH BAY       1700   60      30/ 12     1015.0S
LAKE MURRAY      1700   54      30/  5/ 11 1017.6F
ACE BASIN NERRS  1700   61      20/  5     1014.0S
FORT PULASKI     1800   61 59   20/ 12/ 14 1014.3S
SAPELO ISLAND    1700   63      40/ 11     1013.0F

$$

ANZ835-935-AMZ111-154-330-350-352-354-374-450-454-472-191900-
...C-MAN AND BUOY OBSERVATIONS...

STATION/POSITION TIME  TEMP    WIND        PRES    WAVE   SWELL
                       AIR SEA DIR/SP/G            HT/PER HT/PER/DIR
                 (UTC) (F)     (DEG/KT/KT) (MB)    (FT/S) (FT/S/D)
FOLLY BEACH CMAN 1700   62      30/ 12/ 13 1014.8F
BUOY 41004       NOT AVBL
BUOY 41008       1800   63 64   40/ 17/ 21 1012.3F   5/ 8   3/100/ 8
5E ST. MARYS GA  1700      66                N/A     4/11   2/ 90/11
FRYING PAN BUOY  1800   65 67   40/ 23/ 27 1013.3F   8/ 7
BUOY 41025       NOT AVBL
CAPE LOOKOUT NC  1700   59      30/ 30/ 38 1016.7F
BUOY 41002       NOT AVBL
BUOY 41010       1800   76 76  210/ 10/ 12 1013.3F   7/ 6   7/180/ 6
BUOY 41012       NOT AVBL
ST AUGUSTINE FL  1800   69      90/  8/  9 1012.6F
CAPERS NEARSHORE NOT AVBL
FRIPP NEARSHORE  1700   61      40/ 10/ 14   N/A


$$



USA.gov is the U.S. government's official web portal to all federal, state and local government web resources and services.